Weather History for Van Nuys, CA

Change the Weather History Date:

Friday, March 8, 2013

  Actual Average Record
Temperature  
Mean Temperature 48 °F -  
Max Temperature 54 °F 68 °F 90 °F (2004)
Min Temperature 42 °F 46 °F 39 °F (2012)
Degree Days  
Heating Degree Days 17    
Moisture  
Dew Point 41 °F    
Average Humidity 80    
Maximum Humidity 96    
Minimum Humidity 55    
Precipitation  
Precipitation 0.57 in - - ()
Sea Level Pressure  
Sea Level Pressure 29.89 in    
Wind  
Wind Speed 5 mph (East)    
Max Wind Speed 12 mph    
Max Gust Speed 17 mph    
Visibility 9 miles    
Events Rain    
Averages and records for this station are not official NWS values.
T = Trace of Precipitation, MM = Missing Value Source: NWS Daily Summary

Daily Weather History Graph

Daily Weather History Graph

Search for Another Location

Airport:

Trip Planner

Search our weather history database for the weather conditions in past years. The results will help you decide how hot, cold, wet, or windy it might be!

Date:

Astronomy

Mar. 08, 2013 Rise Set
Actual Time 6:13 AM PST 5:56 PM PST
Civil Twilight 5:48 AM PST 6:21 PM PST
Nautical Twilight 5:19 AM PST 6:50 PM PST
Astronomical Twilight 4:50 AM PST 7:19 PM PST
Moon 3:54 AM PST (3/8) 3:02 PM PST (3/8)
Length of Visible Light 12h 33m
Length of Day
11h 42m
Waning Crescent, 11% of the Moon is Illuminated
Mar 8
Waning Crescent
Mar 11
New
Mar 19
First Quarter
Mar 27
Full
Apr 2
Last Quarter

Hourly Weather History & Observations

Time (PST) Temp. Windchill Dew Point Humidity Pressure Visibility Wind Dir Wind Speed Gust Speed Precip Events Conditions
12:51 AM 48.0 °F - 45.0 °F 89% 29.80 in 10.0 mi ESE 9.2 mph - 0.05 in Rain Light Rain
1:29 AM 42.8 °F 37.0 °F 41.0 °F 93% 29.83 in 1.8 mi WSW 10.4 mph 17.3 mph 0.18 in Rain Heavy Rain
1:40 AM 42.8 °F 41.1 °F 41.0 °F 93% 29.83 in 3.0 mi SW 3.5 mph - 0.25 in Rain Rain
2:51 AM 44.1 °F 41.5 °F 43.0 °F 96% 29.79 in 5.0 mi NNE 4.6 mph - 0.20 in Rain Rain
3:06 AM 44.6 °F - 42.8 °F 93% 29.80 in 3.0 mi Calm Calm - 0.05 in Rain Rain
3:24 AM 44.6 °F 41.4 °F 42.8 °F 93% 29.80 in 3.0 mi WNW 5.8 mph - 0.13 in Rain Rain
3:41 AM 42.8 °F 39.3 °F 41.0 °F 93% 29.80 in 5.0 mi NW 5.8 mph - 0.18 in Rain Light Rain
3:51 AM 43.0 °F 38.8 °F 41.0 °F 93% 29.80 in 6.0 mi NNW 6.9 mph - 0.21 in Rain Light Rain
4:51 AM 42.1 °F 38.4 °F 39.0 °F 89% 29.79 in 10.0 mi NNE 5.8 mph - 0.04 in   Overcast
5:51 AM 42.1 °F - 39.9 °F 92% 29.80 in 10.0 mi Calm Calm - N/A   Overcast
6:51 AM 42.1 °F 40.2 °F 39.0 °F 89% 29.83 in 10.0 mi SE 3.5 mph - N/A   Mostly Cloudy
8:58 AM 48.2 °F - 39.2 °F 71% 29.87 in 10.0 mi Calm Calm - N/A   Mostly Cloudy
9:51 AM 50.0 °F - 37.9 °F 63% 29.88 in 10.0 mi Variable 5.8 mph - N/A   Mostly Cloudy
9:58 AM 51.8 °F - 37.4 °F 58% 29.87 in 10.0 mi Variable 4.6 mph - N/A   Scattered Clouds
10:15 AM 51.8 °F - 37.4 °F 58% 29.87 in 10.0 mi Variable 5.8 mph - N/A   Mostly Cloudy
10:51 AM 53.1 °F - 37.0 °F 55% 29.87 in 10.0 mi Variable 3.5 mph - N/A   Scattered Clouds
11:51 AM 51.1 °F - 37.9 °F 61% 29.87 in 8.0 mi Variable 5.8 mph - 0.01 in   Mostly Cloudy
12:51 PM 52.0 °F - 39.9 °F 63% 29.86 in 10.0 mi NW 11.5 mph - 0.02 in   Mostly Cloudy
1:51 PM 52.0 °F - 37.0 °F 57% 29.86 in 10.0 mi West 5.8 mph - N/A   Mostly Cloudy
2:51 PM 54.0 °F - 39.9 °F 59% 29.86 in 10.0 mi East 8.1 mph - N/A   Overcast
3:51 PM 52.0 °F - 39.9 °F 63% 29.86 in 10.0 mi East 8.1 mph - N/A   Overcast
4:51 PM 51.1 °F - 39.9 °F 66% 29.88 in 10.0 mi ESE 4.6 mph - N/A   Overcast
5:51 PM 50.0 °F - 42.1 °F 74% 29.91 in 10.0 mi East 6.9 mph - 0.00 in   Overcast
6:51 PM 50.0 °F - 43.0 °F 77% 29.95 in 10.0 mi Calm Calm - 0.00 in Rain Light Rain
7:51 PM 48.9 °F - 45.0 °F 86% 29.97 in 10.0 mi East 3.5 mph - 0.04 in   Overcast
7:58 PM 48.2 °F - 44.6 °F 87% 29.97 in 10.0 mi East 4.6 mph - N/A   Overcast
8:51 PM 48.9 °F - 45.0 °F 86% 29.99 in 10.0 mi ESE 3.5 mph - N/A   Overcast
8:57 PM 48.2 °F - 44.6 °F 87% 29.99 in 10.0 mi Calm Calm - N/A   Overcast
9:51 PM 48.9 °F - 45.0 °F 86% 30.00 in 10.0 mi Calm Calm - N/A   Overcast
9:56 PM 48.2 °F - 44.6 °F 87% 30.00 in 10.0 mi Calm Calm - N/A   Mostly Cloudy
10:51 PM 48.0 °F - 46.0 °F 93% 30.00 in 10.0 mi Calm Calm - N/A   Overcast
11:32 PM 48.2 °F - 44.6 °F 87% 30.01 in 10.0 mi Calm Calm - N/A   Overcast
11:51 PM 46.9 °F - 44.1 °F 90% 30.01 in 10.0 mi South 3.5 mph - N/A   Overcast